Owatonna, MN

2:18 PM CST on January 24, 2017 (GMT -0600)
Owatonna Degner Regional

Weather History for KOWA - June, 2013

Change the Weather History Date:

Sunday, June 23, 2013

  Actual Average Record
Temperature  
Mean Temperature 76 °F -  
Max Temperature 82 °F 81 °F 93 °F (2005)
Min Temperature 69 °F 58 °F 42 °F (1972)
Cooling Degree Days 10    
Growing Degree Days 26 (Base 50)    
Moisture  
Dew Point 68 °F    
Average Humidity 79    
Maximum Humidity 94    
Minimum Humidity 58    
Precipitation  
Precipitation 0.27 in - - ()
Sea Level Pressure  
Sea Level Pressure 29.83 in    
Wind  
Wind Speed 14 mph (South)    
Max Wind Speed 24 mph    
Max Gust Speed 37 mph    
Visibility 10 miles    
Events Rain , Thunderstorm    
Averages and records for this station are not official NWS values.
T = Trace of Precipitation, MM = Missing Value Source: NWS Daily Summary

Daily Weather History Graph

Daily Weather History Graph

Search for Another Location

Airport or City:

Trip Planner

Search our weather history database for the weather conditions in past years. The results will help you decide how hot, cold, wet, or windy it might be!

Date:

Astronomy

Jun. 23, 2013 Rise Set
Actual Time 5:30 AM CDT 9:00 PM CDT
Civil Twilight 4:53 AM CDT 9:36 PM CDT
Nautical Twilight 4:05 AM CDT 10:24 PM CDT
Astronomical Twilight 3:04 AM CDT 11:26 PM CDT
Moon 9:09 PM CDT (6/23) 5:51 AM CDT (6/23)
Length of Visible Light 16h 42m
Length of Day
15h 29m
Full, 100% of the Moon is Illuminated
Jun 23
Full
Jun 29
Last Quarter
Jul 8
New
Jul 15
First Quarter
Jul 22
Full

Hourly Weather History & Observations

Time (CDT) Temp. Heat Index Dew Point Humidity Pressure Visibility Wind Dir Wind Speed Gust Speed Precip Events Conditions
12:14 AM 73.4 °F - 71.6 °F 94% 29.85 in 10.0 mi East 8.1 mph - N/A Thunderstorm Thunderstorm
12:34 AM 73.4 °F - 71.6 °F 94% 29.85 in 10.0 mi ESE 12.7 mph - N/A   Clear
12:54 AM 73.4 °F - 71.6 °F 94% 29.84 in 10.0 mi SSE 9.2 mph - N/A   Scattered Clouds
1:14 AM 73.4 °F - 69.8 °F 88% 29.81 in 10.0 mi SE 13.8 mph 17.3 mph N/A   Clear
1:34 AM 73.4 °F - 69.8 °F 88% 29.83 in 10.0 mi SE 13.8 mph 18.4 mph N/A   Scattered Clouds
1:54 AM 73.4 °F - 69.8 °F 88% 29.83 in 10.0 mi ESE 15.0 mph 21.9 mph N/A   Scattered Clouds
2:14 AM 73.4 °F - 69.8 °F 88% 29.83 in 10.0 mi SE 13.8 mph - N/A   Scattered Clouds
2:34 AM 73.4 °F - 69.8 °F 88% 29.84 in 10.0 mi ESE 10.4 mph - N/A   Clear
2:54 AM 73.4 °F - 69.8 °F 88% 29.83 in 10.0 mi SE 16.1 mph 21.9 mph N/A   Clear
3:14 AM 73.4 °F - 68.0 °F 83% 29.82 in 10.0 mi SE 19.6 mph 26.5 mph N/A   Clear
3:34 AM 73.4 °F - 68.0 °F 83% 29.81 in 10.0 mi SE 20.7 mph 29.9 mph N/A   Clear
3:54 AM 71.6 °F - 66.2 °F 83% 29.80 in 10.0 mi SE 19.6 mph 27.6 mph N/A   Clear
4:14 AM 71.6 °F - 68.0 °F 88% 29.80 in 10.0 mi SE 24.2 mph 31.1 mph N/A   Clear
4:34 AM 71.6 °F - 66.2 °F 83% 29.78 in 10.0 mi SE 21.9 mph 31.1 mph N/A   Clear
4:54 AM 71.6 °F - 66.2 °F 83% 29.76 in 10.0 mi SE 24.2 mph 31.1 mph N/A   Clear
5:14 AM 71.6 °F - 66.2 °F 83% 29.77 in 10.0 mi SE 23.0 mph 36.8 mph N/A   Clear
5:34 AM 71.6 °F - 66.2 °F 83% 29.79 in 10.0 mi SE 23.0 mph 34.5 mph N/A   Clear
5:54 AM 71.6 °F - 66.2 °F 83% 29.81 in 10.0 mi SSE 23.0 mph 31.1 mph N/A Thunderstorm Scattered Clouds
6:14 AM 71.6 °F - 68.0 °F 88% 29.81 in 7.0 mi SSE 19.6 mph 23.0 mph N/A Rain , Thunderstorm Light Thunderstorms and Rain
6:34 AM 71.6 °F - 69.8 °F 94% 29.83 in 5.0 mi South 21.9 mph 33.4 mph 0.08 in Rain , Thunderstorm Heavy Thunderstorms and Rain
6:54 AM 71.6 °F - 68.0 °F 88% 29.82 in 10.0 mi South 13.8 mph 24.2 mph 0.22 in Rain , Thunderstorm Heavy Thunderstorms and Rain
7:14 AM 69.8 °F - 66.2 °F 88% 29.82 in 10.0 mi SSE 12.7 mph - 0.03 in Rain , Thunderstorm Light Thunderstorms and Rain
7:34 AM 71.6 °F - 69.8 °F 94% 29.80 in 10.0 mi SSE 11.5 mph - 0.04 in Rain Light Rain
7:54 AM 71.6 °F - 66.2 °F 83% 29.79 in 10.0 mi SSE 9.2 mph - 0.04 in   Light Drizzle
8:14 AM 71.6 °F - 69.8 °F 94% 29.80 in 10.0 mi South 16.1 mph 20.7 mph 0.01 in Rain Light Rain
8:34 AM 71.6 °F - 69.8 °F 94% 29.80 in 10.0 mi South 12.7 mph 20.7 mph 0.01 in Rain Light Rain
8:54 AM 71.6 °F - 69.8 °F 94% 29.78 in 7.0 mi SSE 17.3 mph 23.0 mph 0.01 in Rain Light Rain
9:14 AM 73.4 °F - 69.8 °F 88% 29.78 in 7.0 mi SSE 17.3 mph 25.3 mph N/A   Light Drizzle
9:34 AM 71.6 °F - 69.8 °F 94% 29.76 in 10.0 mi SSE 18.4 mph 26.5 mph N/A Rain Light Rain
9:54 AM 71.6 °F - 69.8 °F 94% 29.73 in 10.0 mi SE 17.3 mph 27.6 mph N/A   Clear
10:14 AM 73.4 °F - 69.8 °F 88% 29.77 in 10.0 mi SSE 12.7 mph 23.0 mph N/A   Clear
10:34 AM 73.4 °F - 69.8 °F 88% 29.80 in 10.0 mi South 11.5 mph 19.6 mph N/A   Clear
10:54 AM 73.4 °F - 69.8 °F 88% 29.80 in 10.0 mi SSE 15.0 mph 19.6 mph N/A   Clear
11:14 AM 73.4 °F - 68.0 °F 83% 29.80 in 10.0 mi South 15.0 mph 19.6 mph N/A   Clear
11:34 AM 75.2 °F - 69.8 °F 83% 29.82 in 10.0 mi South 16.1 mph 24.2 mph N/A   Clear
11:54 AM 77.0 °F - 66.2 °F 69% 29.82 in 10.0 mi South 17.3 mph 24.2 mph N/A   Clear
12:14 PM 78.8 °F - 66.2 °F 65% 29.83 in 10.0 mi South 20.7 mph 27.6 mph N/A   Clear
12:34 PM 77.0 °F - 66.2 °F 69% 29.84 in 10.0 mi South 21.9 mph 25.3 mph N/A   Clear
12:54 PM 77.0 °F - 66.2 °F 69% 29.84 in 10.0 mi South 19.6 mph - N/A   Clear
1:14 PM 77.0 °F - 66.2 °F 69% 29.85 in 10.0 mi SSW 19.6 mph 26.5 mph N/A   Clear
1:34 PM 77.0 °F - 66.2 °F 69% 29.84 in 10.0 mi SSW 19.6 mph 26.5 mph N/A   Clear
1:54 PM 78.8 °F - 66.2 °F 65% 29.84 in 10.0 mi SSW 17.3 mph 21.9 mph N/A   Clear
2:14 PM 78.8 °F - 66.2 °F 65% 29.83 in 10.0 mi SSW 15.0 mph 20.7 mph N/A   Clear
2:34 PM 80.6 °F 83.2 °F 68.0 °F 65% 29.83 in 10.0 mi SW 15.0 mph 20.7 mph N/A   Clear
2:54 PM 80.6 °F 83.2 °F 68.0 °F 65% 29.84 in 10.0 mi SSW 13.8 mph - N/A   Scattered Clouds
3:14 PM 80.6 °F 83.2 °F 68.0 °F 65% 29.84 in 10.0 mi WSW 11.5 mph - N/A   Scattered Clouds
3:34 PM 80.6 °F 83.2 °F 68.0 °F 65% 29.84 in 10.0 mi WSW 16.1 mph - N/A   Scattered Clouds
3:54 PM 80.6 °F 83.2 °F 68.0 °F 65% 29.84 in 10.0 mi SW 12.7 mph - N/A   Scattered Clouds
4:14 PM 82.4 °F 85.4 °F 68.0 °F 62% 29.83 in 10.0 mi SW 10.4 mph 17.3 mph N/A   Scattered Clouds
4:34 PM 82.4 °F 84.6 °F 66.2 °F 58% 29.83 in 10.0 mi WSW 11.5 mph 18.4 mph N/A   Scattered Clouds
4:54 PM 82.4 °F 84.6 °F 66.2 °F 58% 29.84 in 10.0 mi SW 15.0 mph - N/A   Clear
5:14 PM 82.4 °F 84.6 °F 66.2 °F 58% 29.84 in 10.0 mi WSW 9.2 mph - N/A   Scattered Clouds
5:34 PM 82.4 °F 85.4 °F 68.0 °F 62% 29.85 in 10.0 mi SW 13.8 mph 17.3 mph N/A   Clear
5:54 PM 82.4 °F 85.4 °F 68.0 °F 62% 29.85 in 10.0 mi WSW 10.4 mph - N/A   Scattered Clouds
6:14 PM 80.6 °F 83.2 °F 68.0 °F 65% 29.85 in 10.0 mi SW 8.1 mph - N/A   Scattered Clouds
6:34 PM 80.6 °F 83.2 °F 68.0 °F 65% 29.85 in 10.0 mi SW 6.9 mph - N/A   Scattered Clouds
6:54 PM 80.6 °F 83.2 °F 68.0 °F 65% 29.85 in 10.0 mi SW 6.9 mph - N/A   Scattered Clouds
7:14 PM 82.4 °F 86.3 °F 69.8 °F 66% 29.86 in 10.0 mi WSW 9.2 mph - N/A   Mostly Cloudy
7:34 PM 80.6 °F 83.9 °F 69.8 °F 70% 29.86 in 10.0 mi WSW 6.9 mph - N/A   Scattered Clouds
7:54 PM 80.6 °F 83.2 °F 68.0 °F 65% 29.87 in 10.0 mi SW 6.9 mph - N/A   Clear
8:14 PM 78.8 °F - 68.0 °F 69% 29.87 in 10.0 mi WSW 6.9 mph - N/A   Clear
8:34 PM 78.8 °F - 69.8 °F 74% 29.87 in 10.0 mi SW 3.5 mph - N/A   Clear
8:54 PM 75.2 °F - 69.8 °F 83% 29.88 in 10.0 mi SSW 4.6 mph - N/A   Clear
9:14 PM 75.2 °F - 69.8 °F 83% 29.88 in 10.0 mi South 4.6 mph - N/A   Clear
9:34 PM 75.2 °F - 69.8 °F 83% 29.89 in 10.0 mi South 4.6 mph - N/A   Clear
9:54 PM 75.2 °F - 68.0 °F 78% 29.90 in 10.0 mi South 4.6 mph - N/A   Scattered Clouds
10:14 PM 73.4 °F - 68.0 °F 83% 29.90 in 10.0 mi South 4.6 mph - N/A   Scattered Clouds
10:34 PM 73.4 °F - 68.0 °F 83% 29.90 in 10.0 mi South 4.6 mph - N/A   Clear
10:54 PM 73.4 °F - 68.0 °F 83% 29.91 in 10.0 mi South 5.8 mph - N/A   Clear
11:14 PM 73.4 °F - 68.0 °F 83% 29.91 in 10.0 mi South 5.8 mph - N/A   Clear
11:34 PM 73.4 °F - 68.0 °F 83% 29.92 in 10.0 mi South 5.8 mph - N/A   Clear
11:54 PM 73.4 °F - 68.0 °F 83% 29.93 in 10.0 mi South 5.8 mph - N/A   Clear